| time (UTC) | temp F | wind direction | speed knots | gust knots | rain 1hr in | rain 24hr in | rain mn in | humidity % | barometer mb |
| 20260507012543 | 0 | 147 | 0.0 | 1.7 | 0.00 | 0.00 | 0.00 | 1016.1 | |
| 20260507012038 | 0 | 26 | 0.0 | 4.3 | 0.00 | 0.00 | 0.00 | 1016.1 | |
| 20260507011536 | 0 | 15 | 1.7 | 3.5 | 0.00 | 0.00 | 0.00 | 1016.1 | |
| 20260507011032 | 0 | 76 | 0.0 | 4.3 | 0.00 | 0.00 | 0.00 | 1016.1 | |
| 20260507010526 | 0 | 119 | 0.0 | 4.3 | 0.00 | 0.00 | 0.00 | 1016.1 | |
| 20260507010023 | 0 | 39 | 0.0 | 2.6 | 0.00 | 0.00 | 0.00 | 1016.1 | |
| 20260507005521 | 0 | 235 | 0.0 | 4.3 | 0.00 | 0.00 | 0.00 | 1016.1 | |
| 20260507005017 | 0 | 288 | 0.9 | 3.5 | 0.00 | 0.00 | 0.00 | 1016.0 | |
| 20260507004514 | 0 | 345 | 1.7 | 6.1 | 0.00 | 0.00 | 0.00 | 1016.1 | |
| 20260507004012 | 0 | 15 | 0.0 | 2.6 | 0.00 | 0.00 | 0.00 | 1016.1 | |
| 20260507003507 | 0 | 62 | 0.0 | 7.8 | 0.00 | 0.00 | 0.00 | 1016.1 | |
| 20260507003002 | 0 | 13 | 0.0 | 2.6 | 0.00 | 0.00 | 0.00 | 1016.1 | |
| 20260507002459 | 0 | 15 | 2.6 | 5.2 | 0.00 | 0.00 | 0.00 | 1016.0 | |
| 20260507001955 | 0 | 79 | 0.0 | 2.6 | 0.00 | 0.00 | 0.00 | 1016.0 | |
| 20260507001452 | 0 | 350 | 0.0 | 3.5 | 0.00 | 0.00 | 0.00 | 1016.0 | |
| 20260507000949 | 0 | 134 | 0.9 | 7.0 | 0.00 | 0.00 | 0.00 | 1016.0 | |
| 20260507000445 | 0 | 68 | 0.9 | 2.6 | 0.00 | 0.00 | 0.00 | 1015.9 | |
| 20260506235941 | 0 | 196 | 0.0 | 2.6 | 0.00 | 0.00 | 0.00 | 1015.9 | |
| 20260506235438 | 0 | 108 | 0.0 | 3.5 | 0.00 | 0.00 | 0.00 | 1015.9 | |
| 20260506234933 | 0 | 250 | 0.0 | 2.6 | 0.00 | 0.00 | 0.00 | 1015.9 | |
| 20260506234432 | 0 | 269 | 0.0 | 3.5 | 0.00 | 0.00 | 0.00 | 1015.9 | |
| 20260506233929 | 0 | 353 | 3.5 | 5.2 | 0.00 | 0.00 | 0.00 | 1015.5 | |
| 20260506233425 | 0 | 289 | 0.0 | 4.3 | 0.00 | 0.00 | 0.00 | 1015.8 | |
| 20260506232922 | 0 | 308 | 0.0 | 6.1 | 0.00 | 0.00 | 0.00 | 1015.7 | |
| 20260506232418 | 0 | 316 | 0.9 | 3.5 | 0.00 | 0.00 | 0.00 | 1015.8 | |
| 20260506231914 | 0 | 319 | 1.7 | 4.3 | 0.00 | 0.00 | 0.00 | 1016.1 | |
| 20260506231412 | 0 | 20 | 1.7 | 4.3 | 0.00 | 0.00 | 0.00 | 1016.1 | |
| 20260506230909 | 0 | 246 | 0.0 | 4.3 | 0.00 | 0.00 | 0.00 | 1015.7 | |
| 20260506230405 | 0 | 111 | 0.0 | 4.3 | 0.00 | 0.00 | 0.00 | 1015.7 | |
| 20260506225902 | 0 | 357 | 2.6 | 4.3 | 0.00 | 0.00 | 0.00 | 1015.7 | |
| 20260506225359 | 0 | 128 | 0.9 | 4.3 | 0.00 | 0.00 | 0.00 | 1015.9 | |
| 20260506224856 | 0 | 209 | 0.0 | 3.5 | 0.00 | 0.00 | 0.00 | 1015.9 | |
| 20260506224354 | 0 | 77 | 1.7 | 2.6 | 0.00 | 0.00 | 0.00 | 1015.6 | |
| 20260506223850 | 0 | 24 | 0.9 | 4.3 | 0.00 | 0.00 | 0.00 | 1015.8 | |
| 20260506223345 | 0 | 355 | 1.7 | 5.2 | 0.00 | 0.00 | 0.00 | 1015.5 | |
| 20260506222842 | 0 | 344 | 0.9 | 5.2 | 0.00 | 0.00 | 0.00 | 1015.3 | |
| 20260506222338 | 0 | 31 | 0.0 | 4.3 | 0.00 | 0.00 | 0.00 | 1015.6 | |
| 20260506221836 | 0 | 326 | 0.9 | 7.0 | 0.00 | 0.00 | 0.00 | 1015.5 | |
| 20260506221333 | 0 | 71 | 1.7 | 5.2 | 0.00 | 0.00 | 0.00 | 1015.4 | |
| 20260506220831 | 0 | 289 | 3.5 | 4.3 | 0.00 | 0.00 | 0.00 | 1015.8 | |
| 20260506220326 | 0 | 0 | 3.5 | 6.1 | 0.00 | 0.00 | 0.00 | 1015.8 | |
| 20260506215823 | 0 | 320 | 2.6 | 5.2 | 0.00 | 0.00 | 0.00 | 1015.5 | |
| 20260506215319 | 0 | 228 | 1.7 | 7.8 | 0.00 | 0.00 | 0.00 | 1015.6 | |
| 20260506214815 | 0 | 338 | 2.6 | 7.8 | 0.00 | 0.00 | 0.00 | 1015.6 | |
| 20260506214312 | 0 | 8 | 1.7 | 4.3 | 0.00 | 0.00 | 0.00 | 1015.6 | |
| 20260506213810 | 0 | 11 | 1.7 | 3.5 | 0.00 | 0.00 | 0.00 | 1015.5 | |
| 20260506213306 | 0 | 0 | 5.2 | 7.8 | 0.00 | 0.00 | 0.00 | 1015.6 | |
| 20260506212804 | 0 | 66 | 1.7 | 7.8 | 0.00 | 0.00 | 0.00 | 1015.7 | |
| 20260506212259 | 0 | 71 | 0.9 | 2.6 | 0.00 | 0.00 | 0.00 | 1015.8 | |
| 20260506211754 | 0 | 319 | 0.9 | 7.0 | 0.00 | 0.00 | 0.00 | 1015.8 | |
| 20260506211251 | 0 | 316 | 2.6 | 7.0 | 0.00 | 0.00 | 0.00 | 1015.7 | |
| 20260506210748 | 0 | 114 | 1.7 | 7.8 | 0.00 | 0.00 | 0.00 | 1015.8 | |
| 20260506210245 | 0 | 30 | 2.6 | 3.5 | 0.00 | 0.00 | 0.00 | 1015.8 | |
| 20260506205742 | 0 | 246 | 0.0 | 5.2 | 0.00 | 0.00 | 0.00 | 1015.8 | |
| 20260506205238 | 0 | 323 | 2.6 | 4.3 | 0.00 | 0.00 | 0.00 | 1015.8 | |
| 20260506204735 | 0 | 242 | 0.0 | 4.3 | 0.00 | 0.00 | 0.00 | 1015.7 | |
| 20260506204233 | 0 | 275 | 1.7 | 4.3 | 0.00 | 0.00 | 0.00 | 1016.0 | |
| 20260506203731 | 0 | 67 | 3.5 | 7.8 | 0.00 | 0.00 | 0.00 | 1016.0 | |
| 20260506203227 | 0 | 3 | 0.9 | 5.2 | 0.00 | 0.00 | 0.00 | 1015.9 | |
| 20260506202725 | 0 | 346 | 2.6 | 4.3 | 0.00 | 0.00 | 0.00 | 1015.9 | |
| 20260506202221 | 0 | 283 | 1.7 | 7.8 | 0.00 | 0.00 | 0.00 | 1015.7 | |
| 20260506201718 | 0 | 354 | 2.6 | 6.1 | 0.00 | 0.00 | 0.00 | 1015.8 | |
| 20260506201215 | 0 | 63 | 1.7 | 11.3 | 0.00 | 0.00 | 0.00 | 1015.7 | |
| 20260506200712 | 0 | 10 | 2.6 | 7.8 | 0.00 | 0.00 | 0.00 | 1015.8 | |
| 20260506200209 | 0 | 135 | 0.9 | 7.8 | 0.00 | 0.00 | 0.00 | 1015.7 | |
| 20260506195705 | 0 | 55 | 4.3 | 9.6 | 0.00 | 0.00 | 0.00 | 1015.5 | |
| 20260506195201 | 0 | 7 | 4.3 | 9.6 | 0.00 | 0.00 | 0.00 | 1015.5 | |
| 20260506194659 | 0 | 11 | 2.6 | 4.3 | 0.00 | 0.00 | 0.00 | 1015.5 | |
| 20260506194155 | 0 | 325 | 0.9 | 6.1 | 0.00 | 0.00 | 0.00 | 1015.5 | |
| 20260506193653 | 0 | 117 | 1.7 | 6.1 | 0.00 | 0.00 | 0.00 | 1015.5 | |
| 20260506193149 | 0 | 8 | 2.6 | 8.7 | 0.00 | 0.00 | 0.00 | 1015.5 | |
| 20260506192646 | 0 | 44 | 1.7 | 5.2 | 0.00 | 0.00 | 0.00 | 1015.8 | |
| 20260506192142 | 0 | 239 | 3.5 | 5.2 | 0.00 | 0.00 | 0.00 | 1015.9 | |
| 20260506191640 | 0 | 3 | 0.0 | 3.5 | 0.00 | 0.00 | 0.00 | 1015.9 | |
| 20260506191135 | 0 | 312 | 0.0 | 5.2 | 0.00 | 0.00 | 0.00 | 1015.9 | |
| 20260506190633 | 0 | 89 | 0.0 | 6.1 | 0.00 | 0.00 | 0.00 | 1015.9 | |
| 20260506190130 | 0 | 13 | 2.6 | 4.3 | 0.00 | 0.00 | 0.00 | 1015.9 | |
| 20260506185627 | 0 | 300 | 1.7 | 6.1 | 0.00 | 0.00 | 0.00 | 1015.5 | |
| 20260506185123 | 0 | 6 | 0.9 | 3.5 | 0.00 | 0.00 | 0.00 | 1015.5 | |
| 20260506184620 | 0 | 338 | 0.0 | 3.5 | 0.00 | 0.00 | 0.00 | 1015.5 | |
| 20260506184118 | 0 | 341 | 1.7 | 9.6 | 0.00 | 0.00 | 0.00 | 1015.6 | |
| 20260506183614 | 0 | 318 | 1.7 | 8.7 | 0.00 | 0.00 | 0.00 | 1015.5 | |
| 20260506183110 | 0 | 272 | 0.9 | 3.5 | 0.00 | 0.00 | 0.00 | 1015.4 | |
| 20260506182608 | 0 | 77 | 0.0 | 2.6 | 0.00 | 0.00 | 0.00 | 1015.4 | |
| 20260506182105 | 0 | 275 | 2.6 | 2.6 | 0.00 | 0.00 | 0.00 | 1015.3 | |
| 20260506181603 | 0 | 310 | 2.6 | 4.3 | 0.00 | 0.00 | 0.00 | 1015.4 | |
| 20260506181059 | 0 | 3 | 2.6 | 8.7 | 0.00 | 0.00 | 0.00 | 1017.1 | |
| 20260506180556 | 0 | 183 | 0.9 | 4.3 | 0.00 | 0.00 | 0.00 | 1015.3 | |
| 20260506180053 | 0 | 319 | 0.9 | 6.1 | 0.00 | 0.00 | 0.00 | 1015.2 | |
| 20260506175549 | 0 | 40 | 1.7 | 4.3 | 0.00 | 0.00 | 0.00 | 1015.1 | |
| 20260506175045 | 0 | 350 | 1.7 | 6.1 | 0.00 | 0.00 | 0.00 | 1015.1 | |
| 20260506174544 | 0 | 209 | 0.0 | 3.5 | 0.00 | 0.00 | 0.00 | 1015.1 | |
| 20260506174039 | 0 | 306 | 0.0 | 3.5 | 0.00 | 0.00 | 0.00 | 1014.9 | |
| 20260506173538 | 0 | 304 | 1.7 | 4.3 | 0.00 | 0.00 | 0.00 | 1014.9 | |
| 20260506173034 | 0 | 22 | 0.0 | 3.5 | 0.00 | 0.00 | 0.00 | 1014.9 | |
| 20260506172532 | 0 | 235 | 0.0 | 2.6 | 0.00 | 0.00 | 0.00 | 1015.0 | |
| 20260506172028 | 0 | 348 | 1.7 | 3.5 | 0.00 | 0.00 | 0.00 | 1015.2 | |
| 20260506171525 | 0 | 144 | 2.6 | 4.3 | 0.00 | 0.00 | 0.00 | 1015.1 | |
| 20260506171023 | 0 | 336 | 2.6 | 4.3 | 0.00 | 0.00 | 0.00 | 1014.7 | |
| 20260506170520 | 0 | 178 | 2.6 | 4.3 | 0.00 | 0.00 | 0.00 | 1014.8 | |
| 20260506170012 | 0 | 185 | 1.7 | 4.3 | 0.00 | 0.00 | 0.00 | 1015.0 | |
| 20260506165510 | 0 | 40 | 3.5 | 4.3 | 0.00 | 0.00 | 0.00 | 1014.9 | |
| 20260506165006 | 0 | 0 | 0.0 | 5.2 | 0.00 | 0.00 | 0.00 | 1015.1 | |
| 20260506164503 | 0 | 343 | 2.6 | 4.3 | 0.00 | 0.00 | 0.00 | 1015.1 | |
| 20260506164001 | 0 | 31 | 0.0 | 2.6 | 0.00 | 0.00 | 0.00 | 1015.5 | |
| 20260506163456 | 0 | 13 | 2.6 | 6.1 | 0.00 | 0.00 | 0.00 | 1015.5 | |
| 20260506162950 | 0 | 123 | 1.7 | 7.0 | 0.00 | 0.00 | 0.00 | 1015.7 | |
| 20260506162449 | 0 | 351 | 0.9 | 5.2 | 0.00 | 0.00 | 0.00 | 1015.7 | |
| 20260506161946 | 0 | 322 | 1.7 | 4.3 | 0.00 | 0.00 | 0.00 | 1015.1 | |
| 20260506161444 | 0 | 292 | 0.9 | 4.3 | 0.00 | 0.00 | 0.00 | 1015.6 | |
| 20260506160941 | 0 | 72 | 0.0 | 7.0 | 0.00 | 0.00 | 0.00 | 1016.3 | |
| 20260506160438 | 0 | 21 | 1.7 | 7.8 | 0.00 | 0.00 | 0.00 | 1016.4 | |
| 20260506155935 | 0 | 314 | 0.9 | 9.6 | 0.00 | 0.00 | 0.00 | 1016.7 | |
| 20260506155432 | 0 | 117 | 0.9 | 9.6 | 0.00 | 0.00 | 0.00 | 1016.7 | |
| 20260506153554 | 0 | 50 | 4.3 | 6.1 | 0.00 | 0.00 | 0.00 | 1016.7 | |
| 20260506153052 | 0 | 335 | 2.6 | 7.0 | 0.00 | 0.00 | 0.00 | 1016.4 | |
| 20260506152548 | 0 | 66 | 2.6 | 13.0 | 0.00 | 0.00 | 0.00 | 1015.9 | |
| 20260506152046 | 0 | 296 | 2.6 | 7.8 | 0.00 | 0.00 | 0.00 | 1016.0 | |
| 20260506151544 | 0 | 356 | 6.1 | 13.9 | 0.00 | 0.00 | 0.00 | 1016.0 | |
| 20260506151041 | 0 | 351 | 2.6 | 7.8 | 0.00 | 0.00 | 0.00 | 1015.1 | |
| 20260506150537 | 0 | 23 | 1.7 | 9.6 | 0.00 | 0.00 | 0.00 | 1015.1 | |
| 20260506150035 | 0 | 8 | 2.6 | 7.8 | 0.00 | 0.00 | 0.00 | 1015.0 | |
| 20260506145531 | 0 | 83 | 1.7 | 6.1 | 0.00 | 0.00 | 0.00 | 1015.0 | |
| 20260506145029 | 0 | 76 | 2.6 | 12.2 | 0.00 | 0.00 | 0.00 | 1015.0 | |
| 20260506144525 | 0 | 29 | 5.2 | 11.3 | 0.00 | 0.00 | 0.00 | 1014.5 | |
| 20260506144023 | 0 | 54 | 4.3 | 9.6 | 0.00 | 0.00 | 0.00 | 1014.5 | |
| 20260506143520 | 0 | 188 | 0.0 | 6.1 | 0.00 | 0.00 | 0.00 | 1014.6 | |
| 20260506143019 | 0 | 33 | 1.7 | 6.1 | 0.00 | 0.00 | 0.00 | 1014.5 | |
| 20260506142516 | 0 | 355 | 4.3 | 7.0 | 0.00 | 0.00 | 0.00 | 1013.5 | |
| 20260506142014 | 0 | 73 | 0.0 | 5.2 | 0.00 | 0.00 | 0.00 | 1013.5 | |
| 20260506141511 | 0 | 337 | 1.7 | 6.1 | 0.00 | 0.00 | 0.00 | 1013.5 | |
| 20260506141010 | 0 | 333 | 2.6 | 3.5 | 0.00 | 0.00 | 0.00 | 1013.5 | |
| 20260506140507 | 0 | 357 | 2.6 | 5.2 | 0.00 | 0.00 | 0.00 | 1013.5 | |
| 20260506140004 | 0 | 103 | 1.7 | 5.2 | 0.00 | 0.00 | 0.00 | 1013.5 | |
| 20260506135501 | 0 | 336 | 2.6 | 7.0 | 0.00 | 0.00 | 0.00 | 1013.5 | |
| 20260506134956 | 0 | 322 | 0.0 | 2.6 | 0.00 | 0.00 | 0.00 | 1012.4 | |
| 20260506134453 | 0 | 299 | 0.0 | 1.7 | 0.00 | 0.00 | 0.00 | 1012.4 | |
| 20260506133949 | 0 | 147 | 0.0 | 0.9 | 0.00 | 0.00 | 0.00 | 1012.4 | |
| 20260506133446 | 0 | 130 | 0.0 | 0.9 | 0.00 | 0.00 | 0.00 | 1012.4 | |
| 20260506132943 | 0 | 186 | 0.9 | 1.7 | 0.00 | 0.00 | 0.00 | 1012.4 | |
| 20260506132440 | 0 | 34 | 0.0 | 1.7 | 0.00 | 0.00 | 0.00 | 1012.4 | |
| 20260506131938 | 0 | 147 | 0.0 | 1.7 | 0.00 | 0.00 | 0.00 | 1012.4 | |
| 20260506131434 | 0 | 113 | 0.0 | 0.9 | 0.00 | 0.00 | 0.00 | 1012.4 | |
| 20260506130931 | 0 | 330 | 0.9 | 1.7 | 0.00 | 0.00 | 0.00 | 1012.4 | |
| 20260506130428 | 0 | 189 | 1.7 | 3.5 | 0.00 | 0.00 | 0.00 | 1012.4 | |
| 20260506125926 | 0 | 135 | 1.7 | 2.6 | 0.00 | 0.00 | 0.00 | 1012.4 | |
| 20260506125424 | 0 | 164 | 0.0 | 0.9 | 0.00 | 0.00 | 0.00 | 1012.5 | |
| 20260506124922 | 0 | 62 | 0.0 | 1.7 | 0.00 | 0.00 | 0.00 | 1012.4 | |
| 20260506124419 | 0 | 113 | 0.0 | 0.9 | 0.00 | 0.00 | 0.00 | 1012.3 | |
| 20260506123917 | 0 | 142 | 0.0 | 0.9 | 0.00 | 0.00 | 0.00 | 1012.1 | |
| 20260506123414 | 0 | 117 | 0.0 | 0.0 | 0.00 | 0.00 | 0.00 | 1012.2 | |
| 20260506122912 | 0 | 170 | 0.0 | 0.9 | 0.00 | 0.00 | 0.00 | 1012.1 | |
| 20260506122408 | 0 | 135 | 0.0 | 0.0 | 0.00 | 0.00 | 0.00 | 1012.2 | |
| 20260506121907 | 0 | 135 | 0.0 | 0.0 | 0.00 | 0.00 | 0.00 | 1012.3 | |
| 20260506121403 | 0 | 147 | 0.0 | 0.0 | 0.00 | 0.00 | 0.00 | 1012.2 | |
| 20260506120900 | 0 | 322 | 0.0 | 0.9 | 0.00 | 0.00 | 0.00 | 1012.1 | |
| 20260506120358 | 0 | 217 | 0.0 | 0.9 | 0.00 | 0.00 | 0.00 | 1012.1 | |
| 20260506115855 | 0 | 202 | 0.0 | 0.9 | 0.00 | 0.00 | 0.00 | 1012.0 | |
| 20260506115353 | 0 | 104 | 0.0 | 0.9 | 0.00 | 0.00 | 0.00 | 1012.0 | |
| 20260506114851 | 0 | 124 | 0.0 | 1.7 | 0.00 | 0.00 | 0.00 | 1012.0 | |
| 20260506114348 | 0 | 142 | 0.0 | 0.9 | 0.00 | 0.00 | 0.00 | 1012.0 | |
| 20260506113847 | 0 | 117 | 0.0 | 0.9 | 0.00 | 0.00 | 0.00 | 1012.0 | |
| 20260506113344 | 0 | 142 | 0.0 | 0.9 | 0.00 | 0.00 | 0.00 | 1011.9 | |
| 20260506112840 | 0 | 117 | 0.0 | 0.9 | 0.00 | 0.00 | 0.00 | 1012.2 | |
| 20260506112338 | 0 | 202 | 0.0 | 0.0 | 0.00 | 0.00 | 0.00 | 1012.0 | |
| 20260506111835 | 0 | 202 | 0.0 | 0.9 | 0.00 | 0.00 | 0.00 | 1012.1 | |
| 20260506111333 | 0 | 217 | 0.0 | 0.9 | 0.00 | 0.00 | 0.00 | 1012.0 | |
| 20260506110831 | 0 | 218 | 0.0 | 0.9 | 0.00 | 0.00 | 0.00 | 1012.0 | |
| 20260506110328 | 0 | 124 | 0.0 | 1.7 | 0.00 | 0.00 | 0.00 | 1012.0 | |
| 20260506105825 | 0 | 142 | 0.0 | 0.9 | 0.00 | 0.00 | 0.00 | 1012.0 | |
| 20260506105321 | 0 | 218 | 0.0 | 1.7 | 0.00 | 0.00 | 0.00 | 1012.0 | |
| 20260506104818 | 0 | 199 | 0.0 | 1.7 | 0.00 | 0.00 | 0.00 | 1012.0 | |
| 20260506104316 | 0 | 235 | 0.0 | 0.9 | 0.00 | 0.00 | 0.00 | 1012.0 | |
| 20260506103813 | 0 | 205 | 0.0 | 0.9 | 0.00 | 0.00 | 0.00 | 1011.9 | |
| 20260506103311 | 0 | 240 | 0.0 | 0.9 | 0.00 | 0.00 | 0.00 | 1011.8 | |
| 20260506102808 | 0 | 203 | 0.0 | 1.7 | 0.00 | 0.00 | 0.00 | 1011.7 | |
| 20260506102306 | 0 | 224 | 0.0 | 0.0 | 0.00 | 0.00 | 0.00 | 1011.7 | |
| 20260506101803 | 0 | 185 | 0.0 | 0.9 | 0.00 | 0.00 | 0.00 | 1011.6 | |
| 20260506101259 | 0 | 190 | 0.9 | 0.9 | 0.00 | 0.00 | 0.00 | 1011.5 | |
| 20260506100757 | 0 | 203 | 0.0 | 1.7 | 0.00 | 0.00 | 0.00 | 1011.6 | |
| 20260506100255 | 0 | 246 | 0.0 | 3.5 | 0.00 | 0.00 | 0.00 | 1011.5 | |
| 20260506095753 | 0 | 173 | 0.0 | 0.9 | 0.00 | 0.00 | 0.00 | 1011.5 | |
| 20260506095250 | 0 | 181 | 0.0 | 2.6 | 0.00 | 0.00 | 0.00 | 1011.5 | |
| 20260506094746 | 0 | 230 | 0.0 | 2.6 | 0.00 | 0.00 | 0.00 | 1011.1 | |
| 20260506094245 | 0 | 230 | 0.0 | 0.9 | 0.00 | 0.00 | 0.00 | 1011.1 | |
| 20260506093743 | 0 | 178 | 0.0 | 2.6 | 0.00 | 0.00 | 0.00 | 1011.1 | |
| 20260506093240 | 0 | 205 | 0.0 | 0.9 | 0.00 | 0.00 | 0.00 | 1011.1 | |
| 20260506092737 | 0 | 174 | 0.0 | 2.6 | 0.00 | 0.00 | 0.00 | 1011.1 | |
| 20260506092235 | 0 | 134 | 0.0 | 1.7 | 0.00 | 0.00 | 0.00 | 1011.0 | |
| 20260506091732 | 0 | 229 | 0.0 | 0.9 | 0.00 | 0.00 | 0.00 | 1011.0 | |
| 20260506091230 | 0 | 129 | 0.0 | 1.7 | 0.00 | 0.00 | 0.00 | 1011.0 | |
| 20260506090727 | 0 | 187 | 0.0 | 2.6 | 0.00 | 0.00 | 0.00 | ||
| 20260506090224 | 0 | 164 | 0.0 | 0.9 | 0.00 | 0.00 | 0.00 | ||
| 20260506085721 | 0 | 50 | 0.0 | 0.9 | 0.00 | 0.00 | 0.00 | ||
| 20260506085217 | 0 | 185 | 0.0 | 1.7 | 0.00 | 0.00 | 0.00 | ||
| 20260506084714 | 0 | 181 | 0.9 | 1.7 | 0.00 | 0.00 | 0.00 | ||
| 20260506084210 | 0 | 142 | 0.0 | 0.0 | 0.00 | 0.00 | 0.00 | ||
| 20260506083707 | 0 | 111 | 0.0 | 2.6 | 0.00 | 0.00 | 0.00 | 1010.8 | |
| 20260506083205 | 0 | 165 | 0.9 | 1.7 | 0.00 | 0.00 | 0.00 | 1010.8 | |
| 20260506082702 | 0 | 163 | 0.0 | 2.6 | 0.00 | 0.00 | 0.00 | 1010.8 | |
| 20260506082203 | 0 | 217 | 0.0 | 0.9 | 0.00 | 0.00 | 0.00 | 1010.8 | |
| 20260506081701 | 0 | 169 | 0.0 | 2.6 | 0.00 | 0.00 | 0.00 | 1010.8 | |
| 20260506081158 | 0 | 187 | 1.7 | 2.6 | 0.00 | 0.00 | 0.00 | 1010.8 | |
| 20260506080656 | 0 | 218 | 0.9 | 1.7 | 0.00 | 0.00 | 0.00 | 1010.8 | |
| 20260506080152 | 0 | 314 | 1.7 | 2.6 | 0.00 | 0.00 | 0.00 | 1010.8 | |
| 20260506073136 | 0 | 198 | 0.9 | 2.6 | 0.00 | 0.00 | 0.00 | 1011.0 | |
| 20260506072632 | 0 | 196 | 0.0 | 2.6 | 0.00 | 0.00 | 0.00 | 1011.1 | |
| 20260506072131 | 0 | 130 | 1.7 | 4.3 | 0.00 | 0.00 | 0.00 | 1011.1 | |
| 20260506071628 | 0 | 166 | 0.0 | 7.8 | 0.00 | 0.00 | 0.00 | 1011.2 | |
| 20260506071126 | 0 | 146 | 3.5 | 6.1 | 0.00 | 0.00 | 0.00 | 1011.1 | |
| 20260506070622 | 0 | 204 | 3.5 | 4.3 | 0.00 | 0.00 | 0.00 | 1011.1 | |
| 20260506070119 | 0 | 197 | 1.7 | 3.5 | 0.00 | 0.00 | 0.00 | 1011.1 | |
| 20260506062056 | 0 | 184 | 1.7 | 2.6 | 0.00 | 0.00 | 0.00 | 1010.8 | |
| 20260506061552 | 0 | 194 | 0.9 | 2.6 | 0.00 | 0.00 | 0.00 | 1010.8 | |
| 20260506061050 | 0 | 284 | 0.0 | 2.6 | 0.00 | 0.00 | 0.00 | 1010.8 | |
| 20260506060548 | 0 | 204 | 0.9 | 5.2 | 0.00 | 0.00 | 0.00 | 1010.8 | |
| 20260506051017 | 0 | 223 | 0.9 | 4.3 | 0.00 | 0.00 | 0.00 | 1011.0 | |
| 20260506050515 | 0 | 203 | 1.7 | 4.3 | 0.00 | 0.00 | 0.00 | 1011.0 | |
| 20260506045006 | 0 | 123 | 1.7 | 2.6 | 0.00 | 0.00 | 0.00 | 1010.7 | |
| 20260506044503 | 0 | 54 | 1.7 | 2.6 | 0.00 | 0.00 | 0.00 | 1010.7 | |
| 20260506044000 | 0 | 147 | 4.3 | 5.2 | 0.00 | 0.00 | 0.00 | 1010.8 | |
| 20260506043457 | 0 | 206 | 0.0 | 2.6 | 0.00 | 0.00 | 0.00 | 1010.8 | |
| 20260506042954 | 0 | 184 | 1.7 | 4.3 | 0.00 | 0.00 | 0.00 | 1010.8 | |
| 20260506042449 | 0 | 186 | 0.9 | 2.6 | 0.00 | 0.00 | 0.00 | ||
| 20260506041946 | 0 | 131 | 2.6 | 5.2 | 0.00 | 0.00 | 0.00 | 1010.3 | |
| 20260506041444 | 0 | 34 | 0.0 | 3.5 | 0.00 | 0.00 | 0.00 | 1010.3 | |
| 20260506040941 | 0 | 209 | 1.7 | 2.6 | 0.00 | 0.00 | 0.00 | 1010.3 | |
| 20260506040438 | 0 | 209 | 1.7 | 1.7 | 0.00 | 0.00 | 0.00 | 1010.3 | |
| 20260506035934 | 0 | 181 | 1.7 | 6.1 | 0.00 | 0.00 | 0.00 | 1010.3 | |
| 20260506035432 | 0 | 146 | 1.7 | 2.6 | 0.00 | 0.00 | 0.00 | 1010.3 | |
| 20260506034928 | 0 | 136 | 2.6 | 5.2 | 0.00 | 0.00 | 0.00 | 1010.3 | |
| 20260506034426 | 0 | 187 | 1.7 | 6.1 | 0.00 | 0.00 | 0.00 | 1010.3 | |
| 20260506033923 | 0 | 206 | 0.9 | 6.1 | 0.00 | 0.00 | 0.00 | 1010.3 | |
| 20260506033420 | 0 | 154 | 1.7 | 4.3 | 0.00 | 0.00 | 0.00 | 1010.3 | |
| 20260506032917 | 0 | 287 | 0.0 | 6.1 | 0.00 | 0.00 | 0.00 | 1010.3 | |
| 20260506032414 | 0 | 176 | 1.7 | 4.3 | 0.00 | 0.00 | 0.00 | 1010.3 | |
| 20260506031910 | 0 | 189 | 1.7 | 3.5 | 0.00 | 0.00 | 0.00 | 1010.0 | |
| 20260506031408 | 0 | 136 | 1.7 | 4.3 | 0.00 | 0.00 | 0.00 | 1010.0 | |
| 20260506030905 | 0 | 174 | 0.9 | 6.1 | 0.00 | 0.00 | 0.00 | 1010.0 | |
| 20260506030403 | 0 | 145 | 1.7 | 4.3 | 0.00 | 0.00 | 0.00 | ||
| 20260506025859 | 0 | 172 | 0.0 | 2.6 | 0.00 | 0.00 | 0.00 | ||
| 20260506025356 | 0 | 149 | 0.9 | 2.6 | 0.00 | 0.00 | 0.00 | ||
| 20260506024853 | 0 | 213 | 0.9 | 3.5 | 0.00 | 0.00 | 0.00 | ||
| 20260506024350 | 0 | 189 | 0.9 | 2.6 | 0.00 | 0.00 | 0.00 | ||
| 20260506023846 | 0 | 165 | 0.9 | 1.7 | 0.00 | 0.00 | 0.00 | ||
| 20260506023344 | 0 | 160 | 0.9 | 3.5 | 0.00 | 0.00 | 0.00 | ||
| 20260506022840 | 0 | 151 | 2.6 | 3.5 | 0.00 | 0.00 | 0.00 | ||
| 20260506022338 | 0 | 242 | 0.0 | 2.6 | 0.00 | 0.00 | 0.00 | ||
| 20260506021836 | 0 | 209 | 0.9 | 2.6 | 0.00 | 0.00 | 0.00 | ||
| 20260506021332 | 0 | 192 | 0.9 | 2.6 | 0.00 | 0.00 | 0.00 | ||
| 20260506020829 | 0 | 190 | 0.9 | 2.6 | 0.00 | 0.00 | 0.00 | ||
| 20260506020327 | 0 | 142 | 0.0 | 1.7 | 0.00 | 0.00 | 0.00 | ||
| 20260506015824 | 0 | 195 | 0.0 | 2.6 | 0.00 | 0.00 | 0.00 | ||
| 20260506015322 | 0 | 309 | 0.0 | 1.7 | 0.00 | 0.00 | 0.00 | ||
| 20260506014818 | 0 | 168 | 1.7 | 4.3 | 0.00 | 0.00 | 0.00 | 1008.6 | |
| 20260506014315 | 0 | 175 | 1.7 | 4.3 | 0.00 | 0.00 | 0.00 | 1008.6 | |
| 20260506013812 | 0 | 177 | 0.9 | 3.5 | 0.00 | 0.00 | 0.00 | 1008.6 | |
| 20260506013309 | 0 | 151 | 0.0 | 1.7 | 0.00 | 0.00 | 0.00 | 1008.6 |